Content
SEND FEEDBACK

Daily
Averages
Monthly
Summary
Greece

LIVADHI, GREECE


Home > Europe > Greece
Elevation: 4 meters     Latitude: 39 55N     Longitude: 025 13E

WEATHER
 
SELECT A DAY
Number of Records: 103,833;   Date Range: 7/4/96 - 12/27/14
 
SHARE

PRINT THIS DATA

[ ← Previous Day ]
WEATHER ALMANAC - 31 JANUARY, 2013
[ Next Day → ]
[ °F ]   °C
Weather ElementAverageHighLow
Temperature7.8 °C13 °C (1:20 pm)3 °C (3:20 am)
Dewpoint5.2 °C8 °C (3:50 pm)2 °C (3:20 am)
Humidity84.3 %93 % (12:50 am)54 % (2:00 pm)
Barometer1013.5 hPa1016.3 hPa (12:50 am)1011.2 hPa (1:20 pm)
Wind Speed6.3 km/h16.7 km/h (12:20 pm)
Weather ElementAverage
Visibility9.5 km
Wind DirectionESE (124.5 °)

Weather ElementTotal
Precipitation---
Heating Degree Days10.3 (Base 18.3)
Averaged from 51 records on 31 January, 2013
WEATHER CONDITIONS BREAKOUT
WIND DIRECTION BREAKOUT
WEATHER BY HOUR - 31 JANUARY, 2013
[ °F ]   °C
Local TimeTemperatureDewpointHumidityBarometerVisibilityWind DirectionWind SpeedGust SpeedPrecipitationEventsConditions
12:50 AM5 °C4 °C93 %1016.3 hPaVariable3.7 km/h
1:20 AM4 °C3 °C93 %1016.3 hPaCalm
1:50 AM4 °C3 °C93 %1016.3 hPa10 kmCalmMostly Cloudy
2:00 AM3.9 °C2.8 °C89 %1016.3 hPa9.7 kmCalmScattered Clouds
2:20 AM4 °C3 °C93 %1016.3 hPaCalm
2:50 AM4 °C3 °C93 %1015.2 hPaVariable1.9 km/h
3:20 AM3 °C2 °C93 %1015.2 hPaCalm
3:50 AM3 °C2 °C93 %1015.2 hPaCalm
4:20 AM3 °C2 °C93 %1015.2 hPaCalm
4:50 AM4 °C3 °C93 %1015.2 hPaVariable1.9 km/h
5:20 AM3 °C2 °C93 %1014.2 hPaCalm
5:50 AM3 °C2 °C93 %1014.2 hPa10 kmCalmMostly Cloudy
6:20 AM4 °C3 °C93 %1014.2 hPa10 kmVariable5.6 km/hMostly Cloudy
6:50 AM4 °C3 °C93 %1014.2 hPa10 kmCalmMostly Cloudy
7:20 AM4 °C3 °C93 %1014.2 hPa10 kmCalmScattered Clouds
7:50 AM3 °C2 °C93 %1013.2 hPa10 kmVariable3.7 km/hScattered Clouds
8:00 AM3.3 °C2.2 °C88 %1013.9 hPa9.7 km°3.7 km/hScattered Clouds
8:20 AM3 °C2 °C93 %1013.2 hPa10 kmVariable3.7 km/hScattered Clouds
8:50 AM7 °C6 °C93 %1013.2 hPa10 kmCalmScattered Clouds
9:20 AM7 °C6 °C93 %1013.2 hPa10 kmCalmScattered Clouds
9:50 AM8 °C6 °C87 %1013.2 hPa10 kmCalmMostly Cloudy
10:20 AM9 °C6 °C82 %1013.2 hPa10 kmCalmScattered Clouds
10:50 AM12 °C7 °C72 %1013.2 hPa10 kmCalmPartly Cloudy
11:20 AM12 °C6 °C67 %1013.2 hPa10 kmSSE (160°)7.4 km/hPartly Cloudy
11:50 AM12 °C6 °C67 %1012.2 hPa10 kmSSE (160°)7.4 km/hMostly Cloudy
12:20 PM12 °C6 °C67 %1012.2 hPa10 kmSouth (180°)16.7 km/hMostly Cloudy
12:50 PM12 °C6 °C67 %1012.2 hPa10 kmSouth (180°)13 km/hMostly Cloudy
1:20 PM13 °C7 °C67 %1011.2 hPa10 kmSouth (180°)13 km/hMostly Cloudy
1:50 PM13 °C6 °C63 %1011.2 hPa10 kmSouth (180°)13 km/hMostly Cloudy
2:00 PM12.8 °C6.1 °C54 %1011.9 hPa9.7 kmSouth (180°)13 km/hScattered Clouds
2:20 PM12 °C6 °C67 %1011.2 hPa10 kmSouth (180°)13 km/hMostly Cloudy
2:50 PM12 °C7 °C72 %1012.2 hPa10 kmWSW (240°)9.3 km/hMostly Cloudy
3:20 PM11 °C7 °C76 %1012.2 hPa10 kmWSW (240°)9.3 km/hRainLight Rain
3:50 PM11 °C8 °C82 %1012.2 hPa10 kmCalmRainLight Rain
4:20 PM10 °C8 °C87 %1012.2 hPa8 kmWest (280°)7.4 km/hRainRain
4:50 PM10 °C8 °C87 %1012.2 hPa8 kmNNW (330°)7.4 km/hRainLight Rain
5:20 PM10 °C8 °C87 %1012.2 hPa5 kmWNW (300°)13 km/hRainRain
5:50 PM9 °C8 °C93 %1012.2 hPa5 kmSSW (210°)7.4 km/hRainRain
6:20 PM9 °C8 °C93 %1011.2 hPa6.9 kmVariable5.6 km/hRainLight Rain
6:50 PM9 °C8 °C93 %1012.2 hPa10 kmSE (130°)5.6 km/hOvercast
7:20 PM9 °C7 °C87 %1013.2 hPa10 kmWest (280°)11.1 km/hOvercast
7:50 PM9 °C7 °C87 %1013.2 hPa10 kmWNW (290°)7.4 km/hMostly Cloudy
8:00 PM8.3 °C7.2 °C92 %1013.9 hPa9.7 kmWNW (290°)7.4 km/hPartly Cloudy
8:20 PM9 °C7 °C87 %1013.2 hPa10 kmVariable5.6 km/hScattered Clouds
8:50 PM8 °C6 °C87 %1013.2 hPa10 kmVariable5.6 km/hMostly Cloudy
9:20 PM10 °C7 °C82 %1014.2 hPaNorth (350°)14.8 km/h
9:50 PM10 °C7 °C82 %1014.2 hPaNorth (360°)14.8 km/h
10:20 PM9 °C6 °C82 %1015.2 hPaNorth (360°)14.8 km/h
10:50 PM9 °C6 °C82 %1015.2 hPaNNW (340°)16.7 km/h
11:20 PM9 °C5 °C76 %1016.3 hPaNNW (340°)14.8 km/h
11:50 PM9 °C5 °C76 %1016.3 hPaNorth (360°)16.7 km/h
Hourly data recorded from LGLM, located 0 kilometers away from Livadhi, Greece







STORIES FROM OUR PARTNERS